Location: Unspecified
(41.5516°N, 88.1098°W)
Time: 00:21:18
(UTC-05:00)

Cosmos 1674 - Visible Passes

Search period start: 31 July 2014 00:00
Search period end: 10 August 2014 00:00
Orbit: 515 x 544 km, 82.5° (Epoch: 30 July)

Date Brightness Start Highest point End Pass type
(mag) Time Alt. Az. Time Alt. Az. Time Alt. Az.
31 Jul 2.7 04:26:49 10° NNW 04:30:39 65° W 04:34:25 10° S visible
01 Aug 2.6 04:16:07 10° NNW 04:19:58 71° W 04:23:19 13° S visible
02 Aug 2.6 04:05:25 10° N 04:09:16 78° W 04:11:50 20° S visible
03 Aug 2.6 03:54:43 10° N 03:58:35 84° W 04:00:27 29° S visible
04 Aug 2.6 03:44:01 10° N 03:47:53 88° E 03:49:08 41° S visible
05 Aug 2.7 03:33:19 10° N 03:37:10 81° E 03:37:53 57° SSE visible
06 Aug 2.7 03:22:37 10° N 03:26:28 75° E 03:26:41 72° ESE visible
07 Aug 3.0 03:11:55 10° N 03:15:31 66° NE 03:15:31 66° NE visible
08 Aug 3.4 03:01:13 10° N 03:04:24 52° NE 03:04:24 52° NE visible
09 Aug 3.9 02:50:31 10° N 02:53:19 42° NNE 02:53:19 42° NNE visible
